Location: Bli��� Lhota
(48.7570°N, 14.0120°E)
Time: 05:43:05
(UTC+00:00)

USA 238 DEB - Pass Details

Date: 18 September 2020
Orbit: 1004 x 1208 km, 63.4° (Epoch: 28 October)

Event Time Altitude Azimuth Distance (km) Brightness Sun altitude
Rises 19:32:47 0° 317° (NW) 3,946 8.0 -23.2°
Reaches altitude 10° 19:35:26 10° 314° (NW) 3,013 7.1 -23.5°
Maximum altitude 19:42:32 63° 236° (SW) 1,293 4.1 -24.5°
Enters shadow 19:45:40 36° 171° (S) 1,782 4.5 -24.9°
